Regional Weather Roundup
Issued by NWS

Home | Current Version | Previous Version | Graphics & Text | Print | Product List | Glossary On
Versions: 1 2 3 4 5 6 7 8 9 10 11 12 13 14 15 16 17 18 19 20 21 22 23 24 25 26 27 28 29 30 31 32 33 34 35 36 37 38 39 40 41 42 43 44 45 46 47 48 49 50
000
ASUS43 KDTX 251701
RWRMI
MICHIGAN HOURLY REGIONAL WEATHER ROUNDUP
NATIONAL WEATHER SERVICE DETROIT/PONTIAC MI
1200 PM EST SUN FEB 25 2018

NOTE: "FAIR" INDICATES FEW OR NO CLOUDS BELOW 12,000 FEET WITH NO
SIGNIFICANT WEATHER AND/OR OBSTRUCTION TO VISIBILITY.

MIZ047>049-052>055-059>063-066>070-074>076-081>083-251800-
SOUTHEAST LOWER MICHIGAN

CITY           SKY/WX    TMP DP  RH WIND       PRES   REMARKS
ADRIAN         PTSUNNY   38  27  64 W24G32    29.90R WCI  27
ALMA           CLOUDY    38  28  67 SW18G36   29.76R WCI  28
ANN ARBOR      PTSUNNY   40  28  62 SW22G35   29.85R WCI  30
BAD AXE        CLOUDY    39  29  68 W26G35    29.71R WCI  28
CARO           FAIR      39  28  65 SW29G38   29.74R WCI  27
DETROIT CITY   PTSUNNY   42  27  55 W25G35    29.82R
DETROIT        PTSUNNY   43  28  55 W30G40    29.86R
FLINT          PTSUNNY   39  28  64 SW23G36   29.80R WCI  28
GROSSE ILE     CLOUDY    42  30  63 W21G30    29.86R
HILLSDALE      CLOUDY    36  28  75 SW14G28   29.87R WCI  27
HOWELL         FAIR      40  29  66 W18G31    29.80S WCI  30

CITY           SKY/WX    TMP DP  RH WIND       PRES   REMARKS
JACKSON        FAIR      39  28  64 SW20G30   29.84R WCI  29
LAMBERTVILLE   PTSUNNY   40  29  65 W18G26    29.91R WCI  31
LANSING        FAIR      39  26  59 SW23G35   29.82R WCI  28
LAPEER         PTSUNNY   41  28  59 SW22G36   29.77R
MASON          PTSUNNY   41  25  52 SW20G28   29.82S
MONROE         CLOUDY    41  30  63 SW25G33   29.88R
MT. CLEMENS    MOSUNNY   45  32  62 SW20G38   29.79R
PONTIAC        PTSUNNY   40  27  59 SW20G32   29.79R WCI  30
PORT HOPE        N/A     39  27  62 SW23G40   29.64R WCI  28
PORT HURON     PTSUNNY   45  28  53 SW16G23   29.77R
TRI CITIES     PTSUNNY   39  26  59 SW31G43   29.73R WCI  27
MIDLAND        CLOUDY    40  27  60 SW26G41   29.71R WCI  29
TROY           FAIR      43  29  57 SW20G26   29.83R
SAGINAW HB     PTSUNNY   37  28  70 SW32G39   29.75R WCI  25
$$
MIZ043>046-050>051-056>058-064>065-071>073-077>080-251800-
SOUTHWEST LOWER MICHIGAN

CITY           SKY/WX    TMP DP  RH WIND       PRES   REMARKS
BATTLE CREEK   PTSUNNY   39  27  62 W17G32    29.85R WCI  30
BENTON HARBOR  FAIR      39  26  59 SW26G35   29.91R WCI  28
BIG RAPIDS     PTSUNNY   36  24  62 W21G33    29.71R WCI  25
COLDWATER      PTSUNNY   39  29  68 W15G26    29.89R WCI  30
FREMONT        CLOUDY    37  21  54 SW20G31   29.77R WCI  26
HOLLAND        FAIR      39  28  64 W31G39    29.85R WCI  27
GRAND RAPIDS   PTSUNNY   37  27  67 W32G38    29.81R WCI  24
IONIA          CLOUDY    39  27  61 W31G41    29.79R WCI  27
KALAMAZOO      PTSUNNY   40  25  55 W23G33    29.88R WCI  30
LUDINGTON      CLOUDY    33  26  73 SW20G26   29.74R WCI  22
MARSHALL       CLOUDY    39  25  57 SW21G33   29.86R WCI  29
MOUNT PLEASANT PTSUNNY   38  26  61 SW26G38   29.71R WCI  27
MUSKEGON       PTSUNNY   39  26  59 SW17G29   29.82R WCI  30
SOUTH HAVEN    FAIR      38  28  67 SW21G33   29.88R WCI  28
$$
MIZ016>042-251800-
NORTHERN LOWER MICHIGAN

CITY           SKY/WX    TMP DP  RH WIND       PRES   REMARKS
ALPENA         CLOUDY    36  26  67 W20G33    29.55R WCI  25
BEAVER ISLAND  CLOUDY    30  24  77 SW20G39   29.53R WCI  18
BELLAIRE       CLOUDY    31  25  77 SW14G28   29.64R WCI  21
CADILLAC       PTSUNNY   32  24  71 SW21G35   29.64R WCI  20
CHARLEVOIX     CLOUDY    31  23  72 SW25G40   29.61R WCI  17
FRANKFORT      CLOUDY    33  24  70 SW18G26   29.68R WCI  21
GAYLORD        CLOUDY    29  25  85 SW26G41   29.55R WCI  14
GRAYLING       CLOUDY    31  22  70 W17G29    29.61R WCI  20
HARBOR SPRINGS CLOUDY    30  23  75 SW25G39   29.56R WCI  16
HOUGHTON LAKE  CLOUDY    32  23  69 W23G45    29.64R WCI  19
MANISTEE       PTSUNNY   35  23  61 SW14G31   29.71R WCI  26
OSCODA         PTSUNNY   39  24  55 W31G43    29.60R WCI  27
PELLSTON       CLOUDY    31  22  69 SW21G36   29.54R WCI  18
ROGERS CITY    CLOUDY    33  25  72 SW26G41   29.52R WCI  20
TRAVERSE CITY  CLOUDY    34  23  64 SW18G33   29.61R WCI  23
$$
MIZ007>008-015-251800-
EASTERN UPPER MICHIGAN

CITY           SKY/WX    TMP DP  RH WIND       PRES   REMARKS
KINROSS        CLOUDY    29  26  89 SW20G28   29.44R WCI  16
NEWBERRY       CLOUDY    29  28  97 SW23G29   29.41R FOG     WCI  15
S. S. MARIE    LGT SNOW  33  27  78 SW25G44   29.39R WCI  20
MUNISING         N/A     32  26  78 SW10G23   29.41R WCI  24
$$
MIZ004>006-011>014-085-251800-
CENTRAL UPPER MICHIGAN

CITY           SKY/WX    TMP DP  RH WIND       PRES   REMARKS
MANISTIQUE     CLOUDY    28  26  94 SW13G21   29.48R WCI  17
ESCANABA       CLOUDY    28  23  81 SW21G33   29.51R HAZE    WCI  15
MENOMINEE      CLOUDY    29  21  72 W15G31    29.60R WCI  18
SAWYER-GWINN   CLOUDY    27  21  80 SW26G36   29.40R WCI  11
$$
MIZ001>003-009>011-084-251800-
WESTERN UPPER MICHIGAN

CITY           SKY/WX    TMP DP  RH WIND       PRES   REMARKS
IRON MOUNTAIN  PTSUNNY   26  17  68 W20G28    29.48R WCI  12
HOUGHTON       SNOW      26  19  74 W33G47    29.32R VSB 1/2 WCI   9
COPPER HARBOR    N/A     29  21  72 NW13G32   29.29R WCI  19
IRONWOOD       LGT SNOW  23  18  81 SW21G28   29.47R WCI   8
$$

ABBREVIATIONS USED IN REMARKS
   TC - TEMPERATURE IN CELSIUS
  WCI - WIND CHILL INDEX
   HX - HEAT INDEX
  VSB - VISIBILITY




USA.gov is the U.S. government's official web portal to all federal, state and local government web resources and services.